SCP
0 0 0 0 0 0 0 0 0 1 1 0 0 0 0 0 0 1 1 0 0 0 0 1 1 0 0 0 0 0 0 0 0 0 0 0 0 1 1 1 1 0 0
0 0 0 0 0 0 0 0 0 0 1 0 0 0 0 0 0 0 0 0 0 0 0 0 0 0 0 0 0 0 0 0 0 0 0 0 0 0 0 1 0 0 0
0 0 0 0 0 0 0 0 0 0 1 0 0 0 0 0 0 0 0 0 0 0 0 0 0 0 0 0 0 0 0 0 0 0 0 0 0 0 0 0 0 0 0
0 0 0 0 0 0 0 0 1 1 1 0 0 0 0 0 0 0 0 0 0 0 0 0 0 0 0 0 0 0 0 0 0 0 0 0 0 0 0 0 0 0 0
0 0 0 0 0 0 0 0 1 1 1 0 0 0 0 0 0 0 0 0 0 0 0 0 0 0 0 0 0 0 0 0 0 0 0 0 0 0 0 0 0 0 0
0 0 0 0 0 0 0 0 0 0 0 0 0 0 0 0 0 0 0 0 0 0 0 0 0 0 0 0 0 0 0 0 0 0 0 0 0 0 0 0 0 0 0
0 0 0 0 0 0 0 0 0 0 0 0 0 0 0 0 0 0 0 0 0 0 0 0 0 0 0 0 0 0 0 0 0 0 0 0 0 0 0 0 0 0 0
0 0 0 0 0 0 0 0 0 0 0 0 0 0 0 0 0 0 0 0 0 0 0 0 0 0 0 0 0 0 0 0 0 0 0 0 0 0 0 0 0 0 0
0 0 0 0 0 0 0 0 0 0 0 0 0 0 0 0 0 0 0 0 0 0 0 0 0 0 0 0 0 0 0 0 0 0 0 0 0 0 0 0 1 1 0
0 0 0 0 0 0 0 0 0 0 0 0 0 0 0 0 0 0 0 0 0 0 0 0 0 0 0 0 0 0 0 0 0 0 0 0 0 0 0 0 1 1 1
0 0 0 0 0 0 0 0 0 0 0 0 0 0 0 0 0 0 0 0 0 0 0 0 0 0 0 0 0 0 0 0 0 0 0 0 0 0 0 0 0 1 1
0 0 0 0 0 0 0 0 0 0 0 0 0 0 0 0 0 0 0 0 0 0 0 0 0 0 0 0 0 0 0 0 0 0 0 0 0 0 0 0 0 0 1
0 0 0 0 0 0 0 0 0 0 0 0 0 0 0 0 0 0 0 0 0 0 0 0 0 0 0 0 0 0 0 0 0 0 0 0 0 0 0 0 0 0 0
0 0 0 0 0 0 0 0 0 0 0 0 0 0 0 0 0 0 0 0 0 0 0 0 0 0 0 0 0 0 0 0 0 0 0 0 0 0 0 0 0 0 0
0 0 0 0 0 0 0 0 0 0 0 0 0 0 0 0 0 0 0 0 0 0 0 0 0 0 0 0 0 0 0 0 0 0 0 0 0 0 0 0 0 0 0
0 0 0 0 0 0 0 0 0 0 0 0 0 0 0 0 0 0 0 0 0 0 0 0 0 0 0 0 0 0 0 0 0 0 0 0 0 0 0 0 0 0 0
0 0 0 0 0 0 0 0 0 0 0 0 0 0 0 0 0 0 0 0 0 0 0 0 0 0 0 0 0 0 0 0 0 0 0 0 0 0 0 0 0 0 0
0 0 0 0 0 0 0 0 0 0 0 0 0 0 0 0 0 0 0 0 0 0 0 0 0 0 0 0 0 0 0 0 0 0 0 0 0 0 0 0 0 0 0
0 0 0 0 0 0 0 0 0 0 0 0 0 0 0 0 0 0 0 0 0 0 0 0 0 0 0 0 0 0 0 0 0 0 0 0 0 0 0 0 0 0 0
0 0 0 0 0 0 0 0 0 0 0 0 0 0 0 0 0 0 0 0 0 0 0 0 0 0 0 0 0 0 0 0 0 0 0 0 0 0 0 0 0 0 0
0 0 0 0 0 0 0 0 0 0 0 0 0 0 0 0 0 0 0 0 0 0 0 0 0 0 0 0 0 0 0 0 0 0 0 0 0 0 0 0 0 0 0
0 0 0 0 0 0 0 0 0 0 0 0 0 0 0 0 0 0 0 0 0 0 0 0 0 0 0 0 0 0 0 0 0 0 0 0 0 0 0 0 0 0 0
0 0 0 0 0 0 0 0 0 0 0 0 0 0 0 0 0 0 0 0 0 0 0 0 0 0 0 0 0 0 0 0 0 0 0 0 0 0 0 0 0 0 0
0 0 0 0 0 0 0 0 0 0 0 0 0 0 0 0 0 0 0 0 0 0 0 0 0 0 0 0 0 0 0 0 0 0 0 0 0 0 0 0 0 0 0
0 0 0 0 0 0 0 0 0 0 0 0 0 0 0 0 0 0 0 0 0 0 0 0 0 0 0 0 0 0 0 0 0 0 0 0 0 0 0 0 0 0 0
0 0 0 0 0 0 0 0 0 0 0 0 0 0 0 0 0 0 0 0 0 0 0 0 0 0 0 0 0 0 0 0 0 0 0 0 0 0 0 0 0 0 0
Wind_Speed
8 7 6 6 7 5 4 3 3 4 4 4 5 4 4 4 3 1 3 3 3 4 3 3 3 2 2 2 3 3 4 4 4 4 5 6 9 9 8 8 8 10 12
8 6 5 5 4 4 2 1 3 4 4 4 5 4 4 4 4 2 1 1 2 3 4 3 3 3 2 2 2 2 2 3 3 3 3 3 6 7 10 8 8 9 8
7 5 3 2 1 1 0 2 2 2 4 5 5 6 5 5 4 4 2 2 3 3 2 3 3 3 3 2 2 2 1 3 3 3 3 3 3 3 4 8 7 7 6
5 4 2 0 2 2 2 2 2 3 3 4 6 8 8 7 7 5 4 5 5 5 3 2 2 3 3 3 3 2 2 2 3 3 4 4 2 1 1 2 5 7 6
4 3 2 2 3 4 4 3 3 3 4 5 6 7 7 7 6 7 8 8 7 6 5 3 2 2 2 2 3 3 3 2 2 3 3 4 4 3 2 3 3 3 5
2 2 2 2 2 4 4 4 4 4 4 5 6 6 7 7 8 9 9 8 5 4 4 3 1 1 2 2 3 3 4 3 3 3 3 3 3 4 4 3 4 4 4
2 1 2 4 4 5 4 4 5 5 5 5 5 6 7 8 9 9 7 7 6 6 5 5 2 2 2 3 3 3 4 4 4 4 4 3 4 5 5 4 3 3 3
3 4 5 5 5 6 6 5 5 5 5 5 6 5 7 7 6 7 8 8 7 7 7 6 4 4 4 5 4 3 4 4 4 5 5 4 4 5 4 4 4 2 2
7 7 8 8 8 7 6 6 5 5 5 6 6 7 6 6 7 7 8 8 7 8 8 8 8 7 6 6 5 4 5 4 4 4 4 4 4 5 5 4 4 3 3
8 10 10 9 9 8 7 6 6 6 6 6 6 8 6 6 6 8 8 8 8 8 8 8 8 8 7 7 6 6 6 6 5 4 4 4 3 4 5 5 4 3 3
10 10 9 9 9 9 8 7 7 7 6 6 6 6 7 7 7 7 8 7 7 8 8 8 9 9 9 8 7 7 7 7 6 6 6 6 4 4 5 5 4 3 3
9 9 9 9 9 10 10 9 8 8 7 6 6 7 7 7 8 9 8 7 8 8 9 9 9 10 10 9 9 9 10 8 8 8 7 6 5 6 4 4 5 5 3
9 9 9 9 9 10 10 10 10 10 9 8 7 8 9 9 8 9 9 8 8 9 9 9 9 10 10 10 10 9 9 9 9 8 8 7 7 6 5 5 5 5 4
8 9 8 7 8 8 8 9 10 10 10 10 9 9 9 9 9 9 9 9 9 9 10 10 10 10 10 11 11 11 10 9 9 9 8 8 8 7 7 6 6 5 5
9 9 9 8 7 8 8 9 9 9 9 10 11 10 10 9 10 9 10 10 10 12 10 10 10 10 10 11 11 10 12 10 10 9 9 9 10 11 8 6 5 6 5
10 11 11 10 10 9 9 9 9 9 8 10 11 10 10 11 10 10 11 10 10 10 10 11 12 12 12 13 11 8 8 7 8 9 9 9 9 11 12 11 9 7 7
11 11 11 10 9 9 8 8 9 9 10 10 11 11 11 11 11 13 12 12 11 11 11 11 12 12 12 14 14 13 9 9 8 9 8 10 11 11 10 11 12 10 8
10 11 11 11 10 10 10 9 10 10 10 11 11 11 11 13 12 12 13 12 10 10 10 11 12 11 12 14 13 13 11 10 10 9 9 9 8 8 7 9 10 9 9
9 9 11 12 11 11 10 11 11 11 11 12 11 12 13 14 13 13 13 11 10 10 10 11 11 11 11 12 12 11 8 8 9 9 9 9 9 9 10 8 8 8 7
8 9 10 11 10 9 10 11 11 11 12 12 13 13 13 13 14 13 12 11 9 10 10 10 9 10 10 10 11 11 7 7 7 6 7 9 9 10 10 8 7 8 7
9 9 10 10 9 9 9 10 11 11 12 12 13 14 13 13 13 11 9 9 9 9 10 10 9 9 9 8 10 11 7 6 5 5 5 6 10 10 12 9 6 6 6
9 10 9 9 8 9 9 11 11 11 12 13 14 14 14 13 11 10 10 9 9 9 9 8 7 5 5 5 7 9 9 5 3 3 3 3 8 11 11 8 6 6 6
9 9 10 10 9 8 8 10 10 11 12 14 14 14 14 12 10 10 10 9 7 6 6 6 6 5 4 2 5 7 8 7 3 1 0 2 5 7 7 8 8 7 4
8 9 10 11 10 9 10 9 10 10 12 14 14 13 13 12 10 7 7 7 6 6 6 6 5 5 3 2 1 3 5 6 5 3 3 5 6 5 5 7 6 6 5
7 8 9 9 11 10 9 9 10 10 12 13 13 13 12 11 9 8 6 7 4 3 4 6 6 5 4 3 5 3 1 1 2 3 4 4 5 5 6 6 6 6 6
7 8 9 10 11 10 9 9 9 10 11 12 12 10 10 9 8 8 7 3 3 2 3 3 4 4 3 4 4 2 2 2 1 1 3 4 5 6 6 6 6 7 6
Wind_Direction
118 119 120 115 108 98 86 61 36 34 359 12 346 335 335 337 315 319 66 24 5 348 321 321 311 300 285 295 305 276 269 251 240 235 248 241 223 214 209 208 209 209 212
132 135 138 128 115 111 102 128 44 28 357 5 319 302 322 313 293 331 23 360 8 339 332 334 312 309 294 288 290 274 275 278 255 234 237 246 232 220 210 198 204 213 209
139 140 138 127 125 110 53 34 40 7 7 345 318 331 324 310 316 335 322 348 334 303 294 313 319 321 309 301 286 266 259 276 276 250 234 237 236 233 210 198 198 197 202
150 154 174 230 308 343 354 35 29 15 0 341 336 331 316 311 321 323 329 330 312 291 275 264 300 319 315 317 302 317 283 272 282 293 277 280 308 294 308 215 201 188 195
171 167 235 274 317 341 348 4 14 12 360 347 329 322 316 322 321 321 314 308 294 268 258 240 231 277 292 318 325 324 306 276 263 272 290 298 291 250 231 232 218 191 186
203 212 256 291 325 333 341 353 2 357 354 340 326 315 315 314 311 302 292 289 286 285 279 271 224 256 297 314 308 310 302 288 272 266 264 274 281 274 255 232 208 194 198
255 282 323 342 346 340 345 351 352 353 347 330 317 313 312 307 294 291 303 316 318 316 315 309 287 278 280 279 272 275 284 288 282 275 268 263 259 273 279 264 243 207 186
359 354 354 355 351 348 351 350 348 342 334 322 313 309 299 298 305 321 326 313 301 294 291 302 296 272 256 260 255 258 259 261 268 275 280 278 271 271 276 277 269 243 198
360 354 358 354 357 355 353 348 345 339 332 321 309 292 295 316 316 309 297 296 301 305 313 322 310 293 274 257 252 249 249 250 249 258 266 267 276 281 280 283 283 253 217
359 360 356 351 352 347 345 345 345 339 327 316 313 317 325 311 302 304 301 297 293 291 292 289 288 284 278 261 242 243 241 232 232 232 246 255 261 278 282 277 280 285 259
357 350 347 350 346 339 338 341 337 330 324 321 319 314 309 310 305 297 295 298 300 300 295 291 288 284 278 271 254 243 246 241 236 233 230 230 233 253 275 278 271 267 274
350 346 345 345 341 337 336 333 331 324 321 322 319 313 311 305 301 301 302 300 297 295 294 290 287 283 280 272 263 250 245 238 235 231 229 227 225 224 240 261 269 266 259
352 346 345 343 336 335 331 327 322 322 323 321 317 314 311 307 305 303 301 298 295 292 292 289 286 283 281 278 274 263 249 240 235 231 228 224 220 220 223 232 243 251 250
354 347 344 337 334 329 327 322 319 322 320 321 317 311 308 307 304 302 299 297 295 293 288 285 283 281 279 276 274 271 260 245 237 232 230 226 220 217 216 224 229 231 236
348 342 336 331 329 327 323 318 318 320 323 318 313 310 307 305 301 299 298 296 293 292 291 290 286 281 277 269 262 261 262 251 240 234 228 229 222 219 212 212 210 215 218
341 336 333 332 328 324 318 318 319 322 321 313 310 308 306 304 302 300 296 294 293 292 290 287 285 281 277 281 286 282 277 271 256 242 232 233 231 223 209 204 196 200 211
338 336 335 328 323 319 320 323 321 320 318 313 310 310 309 307 304 304 303 298 296 293 288 284 281 277 272 271 269 264 262 262 259 249 236 236 233 212 205 201 200 203 211
341 338 329 324 324 325 325 327 321 319 318 316 315 315 312 308 305 303 299 295 293 291 287 283 280 276 272 266 257 251 253 255 250 241 231 224 242 235 210 201 203 205 205
340 330 325 324 325 323 330 326 320 320 319 319 319 316 313 308 304 302 299 298 295 292 287 284 280 276 271 262 250 238 250 248 247 241 231 219 222 228 216 205 204 204 202
333 327 326 326 323 329 330 323 321 323 323 323 319 313 308 304 302 298 297 297 295 292 291 287 284 280 275 258 237 225 243 245 243 237 239 231 223 213 205 207 206 206 200
331 331 331 327 327 328 328 322 322 326 328 323 316 311 308 304 298 296 299 299 296 295 293 290 285 280 274 258 234 222 233 240 237 233 231 225 204 199 201 207 208 212 195
334 334 329 327 327 330 330 324 327 330 327 321 316 313 310 308 306 306 303 301 298 298 298 297 295 290 278 256 230 214 221 240 248 236 241 231 200 196 197 202 195 182 182
334 331 330 327 328 333 333 327 332 331 325 320 318 315 311 306 303 303 305 305 303 304 308 310 311 311 304 249 210 209 212 218 236 277 1 190 189 188 198 207 185 176 192
329 331 330 328 328 334 335 334 334 331 323 320 318 314 311 308 310 308 305 307 311 319 324 324 326 325 324 342 276 203 196 199 208 206 186 180 187 205 212 188 193 206 213
327 329 327 327 328 333 331 337 337 332 324 319 316 315 313 311 311 309 306 307 326 335 313 322 329 331 335 3 359 345 317 209 191 185 181 185 184 199 209 201 195 202 205
326 327 328 328 327 328 331 337 337 332 324 318 317 315 313 314 313 315 316 309 281 246 253 275 299 313 339 345 1 33 33 17 65 199 205 208 210 211 210 207 203 202 205